User: anonymous   Login
Location: Unspecified
(0.0000°N, 0.0000°E)
Time: 02:24:36
(UTC+00:00)
Language:

OPTUS D1 - Orbit

View from above orbital plane
View from above orbital plane
View from above satellite
View from above satellite

Ground track
Ground track

The orbit data is extracted from the following two-line orbital elements,

1 29495U 06043B   19081.90675626 -.00000135 +00000-0 +00000-0 0  9992
2 29495 000.0194 146.2393 0003714 221.9634 298.3162 01.00272001045615
Epoch (UTC): 22 March 2019 21:45:43
Eccentricity: 0.0003714
inclination: 0.0194°
perigee height: 35770 km
apogee height: 35802 km
right ascension of ascending node: 146.2393°
argument of perigee: 221.9634°
revolutions per day: 1.00272001
mean anomaly at epoch: 298.3162°
orbit number at epoch: 4561

The dashed part of the orbit path shows where the satellite is in the earth's shadow,  

DLR